Volver al catálogo

STARLINK-35269

ActivoComunicacionesSSO
NORAD 65593·PAYLOAD·🇺🇸 United States

Lanzado Sep 13, 2025 desde Cape Canaveral Space Force Station

Loading…

Próximos Pases (próximas 24 horas)

TLE

ActualizadoSource: CelesTrak SupGP

Época: Sep 14, 2026, 20:49 UTC

1 65593C 25207B   26257.86784722  .02280200  00000+0  12074+0 0  2573
2 65593  97.2841 320.5638 0001571  82.5809 162.2081 15.14356590    14

Sigue STARLINK-35269 en tiempo real con AllMySat

Download on the App Store